Regional Weather Roundup
Issued by NWS Charleston, SC

Current Version | Previous Version | Graphics & Text | Print | Product List | Glossary On
Versions: 1 2 3 4 5 6 7 8 9 10 11 12 13 14 15 16 17 18 19 20 21 22 23 24 25 26 27 28 29 30 31 32 33 34 35 36 37 38 39 40 41 42 43 44 45 46 47 48 49 50
000 ASUS42 KCHS 280026 RWRCHS REGIONAL WEATHER ROUNDUP NATIONAL WEATHER SERVICE CHARLESTON SC 800 PM EDT MON JUL 27 2015 NOTE: "FAIR" INDICATES FEW OR NO CLOUDS BELOW 12,000 FEET WITH NO SIGNIFICANT WEATHER AND/OR OBSTRUCTIONS TO VISIBILITY. NOT ALL STATIONS ARE QUALITY CONTROLLED BY THE NATIONAL WEATHER SERVICE. USE DATA WITH CAUTION...ESPECIALLY DEWPOINT OBSERVATIONS. SCZ027-030-031-034>040-042>050-280100- ...SOUTHEAST SOUTH CAROLINA... CITY SKY/WX TMP DP RH WIND PRES REMARKS N CHARLESTON PTCLDY 84 74 71 SE10 29.94R HX 91 6HR MIN TEMP: 84; 6HR MAX TEMP: 91; WATERFRONT PRK N/A 84 79 85 E10 29.92R HX 96 MOUNT PLEASANT LGT RAIN 82 79 89 E5 29.95S HX 93 JOHNS ISLAND FAIR 82 79 89 E8 29.95R HX 93 PINOPOLIS NOT AVBL MONCKS CORNER FAIR 86 73 66 SE6 29.95R HX 93 SUMMERVILLE FAIR 84 75 74 CALM 29.96R HX 92 BEAUFORT MCAS PTCLDY 85 77 77 E6 29.94R HX 95 6HR MIN TEMP: 85; 6HR MAX TEMP: 92; BEAUFORT ARPT FAIR 82 77 83 E6 29.94R HX 91 HILTON HEAD IS PTCLDY 82 79 89 E3 29.95S HX 93 WALTERBORO CLEAR 86 73 66 SE6 29.95R HX 93 ALLENDALE FAIR 88 75 66 SE8G15 29.92R HX 97 ...SOUTHERN MIDLANDS AND PEE DEE... CITY SKY/WX TMP DP RH WIND PRES REMARKS GEORGETOWN NOT AVBL KINGSTREE NOT AVBL ORANGEBURG CLEAR 88 64 44 CALM 29.92S 6HR MIN TEMP: 88; 6HR MAX TEMP: 95; BARNWELL FAIR 91 66 43 SE5 29.93S HX 94 AIKEN FAIR 88 61 40 SE3 29.97R MANNING FAIR 84 70 61 SE5 29.95R COLUMBIA MOCLDY 93 66 40 SE7 29.91R HX 96 6HR MIN TEMP: 93; 6HR MAX TEMP: 98; SUMTER MOCLDY 90 72 55 SE12 29.91R HX 97 6HR MIN TEMP: 90; 6HR MAX TEMP: 97; 6HR PCP: TRACE; FLORENCE CLEAR 87 72 60 SE15 29.95R HX 93 6HR MIN TEMP: 87; 6HR MAX TEMP: 95; MYRTLE BEACH PTCLDY 84 73 70 SE10 29.98S HX 91 N MYRTLE BEACH CLEAR 83 74 74 E7 29.97R 6HR MIN TEMP: 80; 6HR MAX TEMP: 88; 6HR PCP: TRACE; $$ GAZ063-065-086>088-099>101-113>116-118-119-134>141-150-280100- ...SOUTHEAST GEORGIA... CITY SKY/WX TMP DP RH WIND PRES REMARKS SAVANNAH ARPT PTCLDY 84 74 71 E13 29.93S HX 91 6HR MIN TEMP: 84; 6HR MAX TEMP: 93; 6HR PCP: TRACE; HUNTER AAF CLEAR 83 79 86 E7 29.91S HX 95 6HR MIN TEMP: 82; 6HR MAX TEMP: 89; 6HR PCP: 0.01; FORT STEWART CLEAR 85 75 71 E7 29.91R HX 93 6HR MIN TEMP: 85; 6HR MAX TEMP: 92; 6HR PCP: TRACE; STATESBORO CLEAR 86 79 80 S8 29.93R HX 99 SYLVANIA PTCLDY 88 78 73 SE6 29.94R HX 102 CLAXTON LGT RAIN 86 77 74 E5 29.93R HX 97 ...CSRA...CENTRAL AND FAR SOUTHEAST GEORGIA... CITY SKY/WX TMP DP RH WIND PRES REMARKS THOMSON MOCLDY 93 70 46 CALM 29.97R HX 98 AUGUSTA-BUSH PTCLDY 91 67 44 SE7 29.90R HX 94 6HR MIN TEMP: 91; 6HR MAX TEMP: 99; AUGUSTA-DANIEL PTCLDY 94 64 37 SE6 29.93R HX 95 SWAINSBORO FAIR 90 70 51 E3 29.94R HX 95 VIDALIA CLEAR 88 68 51 SE5 29.93R HX 91 EASTMAN FAIR 85 74 69 CALM 29.95R HX 91 HAZLEHURST FAIR 87 76 69 S5 29.92R HX 98 ALMA MOCLDY 86 76 71 SE6 29.93R HX 96 6HR MIN TEMP: 86; 6HR MAX TEMP: 94; WAYCROSS PTCLDY 85 80 85 CALM 29.94R HX 100 JESUP FAIR 86 79 79 CALM 29.93S HX 99 BAXLEY FAIR 88 77 70 CALM 29.93R HX 100 BRUNSWICK PTCLDY 82 77 83 E3 29.93S HX 91 SAINT SIMONS PTCLDY 83 77 82 E7 29.92S HX 92 6HR MIN TEMP: 83; 6HR MAX TEMP: 87; $$ SCZ027-028-034-036>038-045-046-048>050-GAZ119-141-280100- ...LAKE AND SUPPLEMENTAL COASTAL OBSERVATIONS... STATION/POSITION TIME TEMP WIND PRES WAVE SWELL AIR SEA DIR/SP/G HT/PER HT/PER/DIR (UTC) (F) (DEG/KT/KT) (MB) (FT/S) (FT/S/D) UPR LAKE MARION NOT AVBL WINYAH BAY 2345 83 90/ 10 1014.0R LAKE MURRAY 2300 92 110/ 8/ 11 1011.9F ACE BASIN NERRS 2300 86 100/ 3 1014.0 FORT PULASKI 0000 83 85 100/ 8/ 10 1014.1F SAPELO ISLAND 0000 83 70/ 5 1013.0S $$ ANZ835-935-AMZ111-154-330-350-352-354-370-450-454-472-280100- ...C-MAN AND BUOY OBSERVATIONS... STATION/POSITION TIME TEMP WIND PRES WAVE SWELL AIR SEA DIR/SP/G HT/PER HT/PER/DIR (UTC) (F) (DEG/KT/KT) (MB) (FT/S) (FT/S/D) BUOY 41004 2350 83 84 90/ 12/ 14 1013.0S 3/ 6 2/ 6 BUOY 41008 2350 82 82 70/ 4/ 6 1013.5R 2/11 2/ 90/11 FOLLY BEACH CMAN 0000 83 70/ 10/ 12 1014.3R CAPERS NEARSHORE 2308 82 90/ 10/ 12 1013.7S FRIPP NEARSHORE 2300 84 120/ 10/ 12 1013.2R STATION/POSITION TIME TEMP WIND PRES WAVE SWELL AIR SEA DIR/SP/G HT/PER HT/PER/DIR (UTC) (F) (DEG/KT/KT) (MB) (FT/S) (FT/S/D) 5E ST. MARYS GA 2321 82 N/A 2/11 FRYING PAN BUOY 2350 84 84 110/ 14/ 17 1014.8R 4/ 5 2/110/11 BUOY 41025 NOT AVBL CAPE LOOKOUT NC 0000 81 130/ 10/ 11 1015.3R BUOY 41002 2350 81 82 250/ 6/ 10 1015.6F 4/ 6 3/190/ 6 BUOY 41010 2320 83 84 230/ 14/ 17 1015.2R ST AUGUSTINE FL 0000 81 82 230/ 5/ 6 1013.7R $$

USA.gov is the U.S. government's official web portal to all federal, state and local government web resources and services.